Location: ??????
(55.7522°N, 37.6156°E)
Time: 18:16:36
(UTC+00:00)

Cosmos 1269 Rocket - Pass Details

Date: 14 June 2025
Orbit: 768 x 776 km, 74.1° (Epoch: 13 July)

Event Time Altitude Azimuth Distance (km) Brightness Sun altitude
Exits shadow 19:40:13 - 186° (S) 2,773 6.4 -7.6°
Reaches altitude 10° 19:41:26 10° 183° (S) 2,313 6.0 -7.6°
Maximum altitude 19:46:30 51° 109° (ESE) 972 4.3 -7.9°
Drops below altitude 10° 19:51:36 10° 35° (NE) 2,334 7.0 -8.2°
Sets 19:54:03 0° 30° (NNE) 3,266 7.8 -8.3°
